Observations for Trim Patrick St
| Time | AQI | Temp °C | Hum % | Pres Pa | CO μg/m³ | H₂S μg/m³ | NO μg/m³ | NO₂ μg/m³ | O₃ μg/m³ | SO₂ μg/m³ | PM1 μg/m³ | PM2.5 μg/m³ | PM10 μg/m³ |
|---|---|---|---|---|---|---|---|---|---|---|---|---|---|
| Sunday 9 August 2026 | |||||||||||||
| 06:29 | 2 | 18.1 | 73 | 38,400 | 0.07 | 6.61 | 1.46 | 26.09 | 47.08 | 0.84 | 5.43 | 9.99 | 10.99 |
| 06:28 | 2 | 18 | 72 | 38,380 | 0.07 | 5.43 | 1.43 | 18.41 | 53.28 | 0.85 | 4.57 | 8.62 | 9.48 |
| 06:27 | 2 | 18 | 73 | 38,354 | 0.07 | 6.43 | 1.74 | 22.66 | 42.18 | 0.72 | 6.29 | 9.99 | 10.99 |
| 06:26 | 2 | 18 | 73 | 38,318 | 0.07 | 6.27 | 1.59 | 27.38 | 36.36 | 0.5 | 5.43 | 9.27 | 10.2 |
| 06:25 | 2 | 18.1 | 72 | 38,271 | 0.08 | 7.32 | 1.65 | 25.2 | 47.63 | 1.09 | 5.43 | 9.3 | 10.23 |
| 06:24 | 2 | 18.1 | 72 | 38,206 | 0.08 | 7.19 | 1.72 | 27.01 | 50.35 | 0.64 | 4.57 | 9.3 | 10.23 |
| 06:23 | 2 | 18.1 | 72 | 38,122 | 0.07 | 6.43 | 1.77 | 32.1 | 45.74 | 0.54 | 7.14 | 11.45 | 12.59 |
| 06:22 | 2 | 18.1 | 72 | 38,010 | 0.07 | 5.3 | 1.53 | 14.79 | 38.34 | 0.99 | 6.29 | 10.03 | 11.03 |
| 06:21 | 2 | 18.1 | 72 | 37,858 | 0.07 | 6.53 | 1.77 | 23.2 | 50.19 | 0.56 | 5.43 | 10.02 | 11.02 |
| 06:20 | 2 | 18.1 | 72 | 37,657 | 0.09 | 6.27 | 1.72 | 29.18 | 41.28 | 0.51 | 6.29 | 10.03 | 11.03 |
| 06:19 | 2 | 18.1 | 72 | 37,390 | 0.07 | 5.48 | 1.79 | 17.57 | 46.02 | 0.97 | 6.29 | 10.75 | 11.82 |
| 06:18 | 2 | 18.1 | 72 | 37,033 | 0.08 | 7.16 | 1.72 | 23.37 | 43.18 | 0.83 | 5.43 | 10.06 | 11.07 |
| 06:17 | 2 | 18.1 | 72 | 36,556 | 0.09 | 7.34 | 1.71 | 30.75 | 52.46 | 0.59 | 5.43 | 8.62 | 9.48 |
| 06:16 | 2 | 18.1 | 72 | 35,921 | 0.07 | 5.88 | 1.63 | 19.47 | 36.44 | 1.24 | 6.29 | 10.08 | 11.09 |
| 06:15 | 2 | 18.1 | 72 | 35,075 | 0.07 | 6.92 | 1.53 | 28.33 | 55.15 | 0.92 | 7.14 | 11.49 | 12.63 |
| 06:14 | 2 | 18.2 | 72 | 33,947 | 0.08 | 6.61 | 1.48 | 30.17 | 40.89 | 0.98 | 6.29 | 9.35 | 10.28 |
| 06:13 | 2 | 18.2 | 71 | 32,442 | 0.06 | 4.91 | 1.62 | 13.19 | 38.21 | 1.46 | 5.43 | 10.09 | 11.1 |
| 06:12 | 2 | 18.2 | 72 | 30,436 | 0.06 | 7.84 | 1.63 | 31.94 | 53.68 | 0.62 | 5.43 | 10.08 | 11.09 |
| 06:11 | 2 | 18.2 | 71 | 27,761 | 0.08 | 5.77 | 1.61 | 26.15 | 39.28 | 0.2 | 4.57 | 8.67 | 9.54 |
| 06:10 | 2 | 18.2 | 71 | 24,195 | 0.07 | 6.48 | 1.81 | 29.02 | 53.42 | 1.18 | 6.29 | 10.83 | 11.92 |